TimeCST,TemperatureF,Dew PointF,Humidity,Sea Level PressureIn,VisibilityMPH,Wind Direction,Wind SpeedMPH,Gust SpeedMPH,PrecipitationIn,Events,Conditions,WindDirDegrees,DateUTC
12:15 AM,21.2,14.0,74,30.30,10.0,NW,21.9,31.1,0.00,,Overcast,320,2012-11-23 06:15:00
12:35 AM,21.2,14.0,74,30.31,9.0,NW,29.9,34.5,0.00,,Overcast,310,2012-11-23 06:35:00
12:55 AM,21.2,14.0,74,30.32,9.0,NW,25.3,32.2,0.00,,Overcast,320,2012-11-23 06:55:00
1:15 AM,19.4,12.2,74,30.33,10.0,NW,25.3,31.1,0.00,,Overcast,320,2012-11-23 07:15:00
1:35 AM,19.4,12.2,74,30.34,10.0,NW,26.5,32.2,0.00,,Overcast,320,2012-11-23 07:35:00
1:55 AM,19.4,12.2,74,30.34,10.0,NW,24.2,31.1,0.00,,Overcast,320,2012-11-23 07:55:00
2:15 AM,17.6,12.2,79,30.36,10.0,NW,18.4,26.5,0.00,,Overcast,320,2012-11-23 08:15:00
2:35 AM,17.6,12.2,79,30.37,10.0,NNW,18.4,25.3,0.00,,Overcast,330,2012-11-23 08:35:00
2:55 AM,17.6,10.4,73,30.38,10.0,NW,21.9,29.9,0.00,,Overcast,320,2012-11-23 08:55:00
3:15 AM,17.6,10.4,73,30.39,10.0,NW,21.9,27.6,0.00,,Overcast,320,2012-11-23 09:15:00
3:35 AM,17.6,10.4,73,30.39,10.0,NW,26.5,29.9,0.00,,Overcast,320,2012-11-23 09:35:00
3:55 AM,17.6,10.4,73,30.39,10.0,NW,24.2,28.8,0.00,,Overcast,320,2012-11-23 09:55:00
4:15 AM,17.6,10.4,73,30.40,10.0,NW,18.4,28.8,0.00,,Overcast,320,2012-11-23 10:15:00
4:35 AM,17.6,10.4,73,30.40,10.0,NW,26.5,31.1,0.00,,Overcast,320,2012-11-23 10:35:00
4:55 AM,17.6,10.4,73,30.41,10.0,NW,20.7,28.8,0.00,,Overcast,320,2012-11-23 10:55:00
5:15 AM,17.6,10.4,73,30.42,10.0,NW,20.7,27.6,0.00,,Overcast,310,2012-11-23 11:15:00
5:35 AM,15.8,8.6,73,30.42,10.0,NW,20.7,25.3,0.00,,Overcast,310,2012-11-23 11:35:00
5:55 AM,15.8,8.6,73,30.43,10.0,NW,17.3,-,0.00,,Overcast,310,2012-11-23 11:55:00
6:15 AM,15.8,8.6,73,30.43,10.0,NW,21.9,-,0.00,,Overcast,320,2012-11-23 12:15:00
6:35 AM,14.0,8.6,79,30.44,10.0,NW,21.9,29.9,0.00,,Overcast,320,2012-11-23 12:35:00
6:55 AM,14.0,8.6,79,30.44,10.0,NW,18.4,23.0,0.00,,Overcast,310,2012-11-23 12:55:00
7:15 AM,14.0,8.6,79,30.45,10.0,NW,18.4,-,0.00,,Overcast,310,2012-11-23 13:15:00
7:35 AM,14.0,8.6,79,30.46,10.0,NW,18.4,-,0.00,,Overcast,310,2012-11-23 13:35:00
7:55 AM,14.0,8.6,79,30.46,10.0,NW,17.3,24.2,0.00,,Overcast,310,2012-11-23 13:55:00
8:15 AM,14.0,8.6,79,30.47,10.0,NW,20.7,-,0.00,,Overcast,320,2012-11-23 14:15:00
8:35 AM,14.0,8.6,79,30.47,10.0,NNW,17.3,23.0,0.00,,Overcast,330,2012-11-23 14:35:00
8:55 AM,14.0,8.6,79,30.48,10.0,NNW,17.3,-,0.00,,Overcast,330,2012-11-23 14:55:00
9:15 AM,14.0,8.6,79,30.48,10.0,NW,18.4,24.2,0.00,,Overcast,320,2012-11-23 15:15:00
9:35 AM,14.0,8.6,79,30.49,10.0,NNW,15.0,-,0.00,,Overcast,330,2012-11-23 15:35:00
9:55 AM,15.8,8.6,73,30.49,10.0,NW,15.0,-,0.00,,Overcast,320,2012-11-23 15:55:00
10:15 AM,15.8,8.6,73,30.49,10.0,NW,15.0,-,0.00,,Overcast,320,2012-11-23 16:15:00
10:35 AM,17.6,8.6,68,30.50,9.0,NW,13.8,-,0.00,,Overcast,310,2012-11-23 16:35:00
10:55 AM,17.6,10.4,73,30.51,8.0,NNW,15.0,19.6,0.00,,Overcast,330,2012-11-23 16:55:00
11:15 AM,17.6,10.4,73,30.50,5.0,NW,15.0,-,0.00,,Overcast,310,2012-11-23 17:15:00
11:35 AM,17.6,10.4,73,30.50,9.0,NW,13.8,-,0.00,,Overcast,320,2012-11-23 17:35:00
11:55 AM,17.6,8.6,68,30.48,10.0,NW,15.0,-,0.00,,Mostly Cloudy,310,2012-11-23 17:55:00
12:15 PM,19.4,8.6,63,30.48,10.0,NW,15.0,-,0.00,,Clear,320,2012-11-23 18:15:00
12:35 PM,19.4,8.6,63,30.47,10.0,NNW,13.8,-,0.00,,Clear,330,2012-11-23 18:35:00
12:55 PM,19.4,8.6,63,30.47,10.0,NNW,16.1,20.7,0.00,,Clear,330,2012-11-23 18:55:00
1:15 PM,19.4,8.6,63,30.47,10.0,NW,17.3,-,0.00,,Clear,320,2012-11-23 19:15:00
1:35 PM,21.2,8.6,58,30.46,10.0,NNW,11.5,-,0.00,,Clear,330,2012-11-23 19:35:00
1:55 PM,21.2,8.6,58,30.45,10.0,NW,12.7,19.6,0.00,,Clear,320,2012-11-23 19:55:00
2:15 PM,21.2,8.6,58,30.45,10.0,NNW,15.0,19.6,0.00,,Clear,330,2012-11-23 20:15:00
2:35 PM,21.2,8.6,58,30.45,10.0,NNW,11.5,-,0.00,,Clear,330,2012-11-23 20:35:00
2:55 PM,19.4,8.6,63,30.45,10.0,NNW,11.5,-,0.00,,Clear,340,2012-11-23 20:55:00
3:15 PM,21.2,8.6,58,30.45,10.0,NNW,9.2,-,0.00,,Clear,340,2012-11-23 21:15:00
3:35 PM,21.2,8.6,58,30.45,10.0,NNW,11.5,-,0.00,,Clear,340,2012-11-23 21:35:00
3:55 PM,19.4,8.6,63,30.45,10.0,North,8.1,-,0.00,,Clear,350,2012-11-23 21:55:00
4:15 PM,19.4,8.6,63,30.46,10.0,North,6.9,-,0.00,,Clear,350,2012-11-23 22:15:00
4:35 PM,19.4,8.6,63,30.45,10.0,NNW,5.8,-,0.00,,Clear,340,2012-11-23 22:35:00
4:55 PM,17.6,8.6,68,30.45,10.0,NNW,4.6,-,0.00,,Clear,330,2012-11-23 22:55:00
5:15 PM,15.8,8.6,73,30.45,10.0,NNW,4.6,-,0.00,,Clear,340,2012-11-23 23:15:00
5:35 PM,14.0,6.8,73,30.45,10.0,North,5.8,-,0.00,,Clear,350,2012-11-23 23:35:00
5:55 PM,14.0,6.8,73,30.44,10.0,North,5.8,-,0.00,,Clear,10,2012-11-23 23:55:00
6:15 PM,14.0,8.6,79,30.44,10.0,North,5.8,-,0.00,,Clear,10,2012-11-24 00:15:00
6:35 PM,12.2,6.8,79,30.44,10.0,NNE,5.8,-,0.00,,Clear,30,2012-11-24 00:35:00
6:55 PM,12.2,5.0,73,30.43,10.0,NE,4.6,-,0.00,,Clear,40,2012-11-24 00:55:00
7:15 PM,12.2,6.8,79,30.42,10.0,NE,4.6,-,0.00,,Clear,40,2012-11-24 01:15:00
7:35 PM,10.4,5.0,79,30.41,10.0,NE,4.6,-,0.00,,Clear,40,2012-11-24 01:35:00
7:55 PM,12.2,6.8,79,30.41,10.0,NE,3.5,-,0.00,,Clear,40,2012-11-24 01:55:00
8:15 PM,12.2,6.8,79,30.41,10.0,NE,3.5,-,0.00,,Clear,50,2012-11-24 02:15:00
8:35 PM,10.4,5.0,79,30.40,10.0,Calm,Calm,-,0.00,,Clear,0,2012-11-24 02:35:00
8:55 PM,10.4,6.8,85,30.39,10.0,ENE,3.5,-,0.00,,Clear,60,2012-11-24 02:55:00
9:15 PM,10.4,6.8,85,30.39,10.0,Calm,Calm,-,0.00,,Clear,0,2012-11-24 03:15:00
9:35 PM,10.4,6.8,85,30.38,10.0,Calm,Calm,-,0.00,,Clear,0,2012-11-24 03:35:00
9:55 PM,12.2,8.6,85,30.38,10.0,Calm,Calm,-,0.00,,Clear,0,2012-11-24 03:55:00
10:15 PM,10.4,5.0,79,30.37,10.0,NE,4.6,-,0.00,,Clear,40,2012-11-24 04:15:00
10:55 PM,10.4,5.0,79,30.36,10.0,ENE,5.8,-,0.00,,Clear,70,2012-11-24 04:55:00
11:15 PM,10.4,5.0,79,30.35,10.0,ENE,3.5,-,0.00,,Clear,70,2012-11-24 05:15:00
11:35 PM,10.4,5.0,79,30.35,10.0,Calm,Calm,-,0.00,,Clear,0,2012-11-24 05:35:00
11:55 PM,10.4,8.6,92,30.35,10.0,SSE,3.5,-,0.00,,Clear,160,2012-11-24 05:55:00